Regional Weather Roundup
Issued by NWS Green Bay, WI

Home | Current Version | Previous Version | Graphics & Text | Print | Product List | Glossary Off
Versions: 1 2 3 4 5 6 7 8 9 10 11 12 13 14 15 16 17 18 19 20 21 22 23 24 25 26 27 28 29 30 31 32 33 34 35 36 37 38 39 40 41 42 43 44 45 46 47 48 49 50

000
ASUS43 KGRB 300811
RWRGRB

NORTH-CENTRAL AND NORTHEAST WISCONSIN REGIONAL WEATHER ROUNDUP
NATIONAL WEATHER SERVICE GREEN BAY WI
300 AM CDT SUN AUG 30 2015

WIZ005-009-010>012-018-019-300900-
NORTH CENTRAL WISCONSIN

CITY           SKY/WX    TMP DP  RH WIND       PRES   REMARKS
IRONWOOD       CLEAR     63  61  94 SW9       29.97S
MANITOWISH WTR CLOUDY    59  59 100 SW6       30.03F FOG
ARBOR VITAE    CLOUDY    59  58  96 SW7       30.04S FOG
EAGLE RIVER    FOG       59  59 100 CALM      30.04S VSB 3/4
LAND O LAKES   CLOUDY    61  61  99 SW5       30.05S FOG
RHINELANDER    CLOUDY    59  58  96 SW6       30.06S FOG
PHILLIPS       CLOUDY    58  58 100 CALM      30.04F FOG
ANTIGO         FOG       51  51 100 CALM      30.06S VSB 1/4
TOMAHAWK       FOG       55  54  97 CALM      30.06S VSB 1/2
MERRILL        FOG       50  50 100 CALM      30.06S VSB 1/4
$$

WIZ013-073-300900-
NORTHEAST WISCONSIN

CITY           SKY/WX    TMP DP  RH WIND       PRES   REMARKS
IRON MOUNTAIN  CLEAR     57  56  96 CALM      30.03S FOG
MARINETTE      CLOUDY    57  55  94 CALM      30.03S VSB 1/2
OCONTO         CLOUDY    53  53 100 CALM      30.04S VSB 1/4
$$

WIZ017-030-035>037-045-300900-
CENTRAL WISCONSIN

CITY           SKY/WX    TMP DP  RH WIND       PRES   REMARKS
MEDFORD        FOG       51  51 100 CALM      30.05S VSB 1/4
WAUSAU         FOG       54  53  97 E3        30.04F VSB 1/4
MOSINEE        FOG       52  52 100 CALM      30.06S VSB 1/4
MARSHFIELD     FOG       57  54  89 SW5       30.05F VSB 1/4
WISC RAPIDS    FOG       56  54  93 CALM      30.06S VSB 1/4
STEVENS POINT  MOCLDY    55  54  98 CALM      30.06S FOG
WAUPACA        FOG       56  55  96 CALM      30.05F VSB 1/4
SHAWANO        FOG       56  54  95 CALM      30.05S VSB<1/4
CLINTONVILLE   FOG       52  52 100 CALM      30.05S VSB 1/4
WAUTOMA        FOG       58  58 100 CALM      30.06S VSB 1/4
$$

WIZ038-039-048-051-300900-
FOX VALLEY

CITY           SKY/WX    TMP DP  RH WIND       PRES   REMARKS
NWS GREEN BAY  FOG       59  58  96 CALM      30.05S VSB<1/4
APPLETON       MOCLDY    61  61 100 NW3       30.03F FOG
OSHKOSH        FOG       60  58  92 CALM      30.04S VSB 1/4
FOND DU LAC    FOG       57  56  96 CALM      30.04S VSB 1/4
$$

WIZ022-050-052-300900-
EAST CENTRAL WISCONSIN

CITY           SKY/WX    TMP DP  RH WIND       PRES   REMARKS
EPHRAIM        FAIR      58  58  98 CALM      30.03S FOG
STURGEON BAY     N/A     57  54  88 CALM      30.06S VSB 1/4
MANITOWOC      FOG       55  54  96 MISG      30.04F VSB 1/4
SHEBOYGAN      FOG       55  54  96 CALM      30.04S VSB 1/2
$$

LMZ563-521-522-541>543-300900-
LAKESHORE

STATION/POSITION TIME  TEMP    WIND        PRES    VSBY  WAVE
                       AIR SEA DIR/SP/G                  HT/PER
                 (UTC) (F)     (DEG/KT/KT) (MB)    (MI)  (FT/S)
SHEBOYGAN LKSHOR 0800   53     350/  4/  4 1017.6R
ALGOMA MARINA    0714             CALM       N/A
NORTHPORT PIER   0802   60     220/  2/  6 1016.9S
N MID LAKE BUOY  0750   63 65  210/  6/  8 1017.0R         1
S GREEN BAY BUOY 0800   62 62  230/  4/  6 1018.6S
SISTER BAY LKSHO 0704   61        CALM       N/A
CHAMBERS ISLAND  0700   60     210/  4/  7 1017.3S
$$


USA.gov is the U.S. government's official web portal to all federal, state and local government web resources and services.